Voltar ao catálogo

STARLINK-31645

AtivoComunicaçõesVLEO
NORAD 59264·PAYLOAD·🇺🇸 United States

Lançado Mar 19, 2024 de Vandenberg Space Force Base

Loading…

Próximas Passagens (próximas 24 horas)

TLE

AtualizadoSource: CelesTrak SupGP

Época: Sep 14, 2026, 22:47 UTC

1 59264C 24050L   26257.94979167 -.00001150  00000+0 -33993-4 0  2577
2 59264  53.1605  19.7088 0001133  87.4129 358.1132 15.34384007    19

Acompanhe STARLINK-31645 em tempo real com AllMySat

Download on the App Store